TimeCST,TemperatureF,Dew PointF,Humidity,Sea Level PressureIn,VisibilityMPH,Wind Direction,Wind SpeedMPH,Gust SpeedMPH,PrecipitationIn,Events,Conditions,WindDirDegrees,DateUTC
12:53 AM,37.0,34.0,89,30.06,8.0,Calm,Calm,-,N/A,,Clear,0,2013-02-14 06:53:00
1:53 AM,35.1,33.1,92,30.06,7.0,Calm,Calm,-,N/A,,Clear,0,2013-02-14 07:53:00
2:53 AM,34.0,30.9,89,30.06,6.0,Calm,Calm,-,N/A,,Clear,0,2013-02-14 08:53:00
3:38 AM,33.8,32.0,93,30.05,1.8,Calm,Calm,-,N/A,,Clear,0,2013-02-14 09:38:00
3:48 AM,33.8,32.0,93,30.05,4.0,Calm,Calm,-,N/A,,Clear,0,2013-02-14 09:48:00
3:53 AM,34.0,32.0,92,30.05,3.0,Calm,Calm,-,N/A,,Clear,0,2013-02-14 09:53:00
4:02 AM,33.8,32.0,93,30.05,2.5,Calm,Calm,-,N/A,,Clear,0,2013-02-14 10:02:00
4:18 AM,33.8,30.2,87,30.04,7.0,Calm,Calm,-,N/A,,Partly Cloudy,0,2013-02-14 10:18:00
4:25 AM,33.8,30.2,87,30.04,1.8,Calm,Calm,-,N/A,,Partly Cloudy,0,2013-02-14 10:25:00
4:36 AM,33.8,30.2,87,30.05,3.0,Calm,Calm,-,N/A,,Partly Cloudy,0,2013-02-14 10:36:00
4:53 AM,33.1,30.9,92,30.05,5.0,Calm,Calm,-,N/A,,Clear,0,2013-02-14 10:53:00
5:53 AM,32.0,30.9,96,30.07,7.0,SSW,5.8,-,N/A,,Clear,210,2013-02-14 11:53:00
6:53 AM,32.0,30.9,96,30.09,5.0,SSW,6.9,-,N/A,,Clear,210,2013-02-14 12:53:00
7:53 AM,37.0,34.0,89,30.11,10.0,SSW,6.9,-,N/A,,Clear,210,2013-02-14 13:53:00
8:53 AM,43.0,37.0,80,30.10,10.0,West,9.2,-,N/A,,Clear,280,2013-02-14 14:53:00
9:53 AM,50.0,37.9,63,30.10,10.0,West,9.2,-,N/A,,Clear,280,2013-02-14 15:53:00
10:53 AM,53.1,39.0,59,30.09,10.0,West,6.9,-,N/A,,Clear,280,2013-02-14 16:53:00
11:53 AM,55.9,39.9,55,30.08,10.0,Variable,4.6,-,N/A,,Clear,0,2013-02-14 17:53:00
12:53 PM,59.0,37.9,46,30.05,10.0,Variable,3.5,-,N/A,,Clear,0,2013-02-14 18:53:00
1:53 PM,61.0,37.9,42,30.04,10.0,West,9.2,-,N/A,,Clear,260,2013-02-14 19:53:00
2:53 PM,60.1,36.0,41,30.03,10.0,WSW,5.8,-,N/A,,Clear,250,2013-02-14 20:53:00
3:53 PM,61.0,36.0,39,30.04,10.0,WSW,5.8,-,N/A,,Partly Cloudy,250,2013-02-14 21:53:00
4:53 PM,59.0,36.0,42,30.04,10.0,WSW,8.1,-,N/A,,Clear,250,2013-02-14 22:53:00
5:53 PM,55.0,35.1,47,30.05,10.0,WSW,5.8,-,N/A,,Clear,240,2013-02-14 23:53:00
6:53 PM,51.1,36.0,56,30.06,10.0,WSW,3.5,-,N/A,,Clear,240,2013-02-15 00:53:00
7:53 PM,48.9,36.0,61,30.06,10.0,Calm,Calm,-,N/A,,Clear,0,2013-02-15 01:53:00
8:53 PM,45.0,36.0,71,30.07,10.0,Calm,Calm,-,N/A,,Clear,0,2013-02-15 02:53:00
9:53 PM,46.0,36.0,68,30.08,10.0,Calm,Calm,-,N/A,,Clear,0,2013-02-15 03:53:00
10:53 PM,45.0,36.0,71,30.08,10.0,Calm,Calm,-,N/A,,Clear,0,2013-02-15 04:53:00
11:53 PM,42.1,36.0,79,30.08,10.0,Calm,Calm,-,N/A,,Clear,0,2013-02-15 05:53:00